Showing default

COSMOS 2456 (GLONASS), 36111

Orbit data source: Space-Track

COSMOS 2456 (GLONASS), 36111 is a Commonwealth of Independent States-origin payload satellite in MEO that was launched on Mon, 14 Dec 2009 UTC via a PROTON-M/DM-2 launch vehicle from the Tyuratam Missile And Space Complex (TTMTR). Payload-class satellites include a variety of spacecraft equipped with specific instruments for various scientific and technological missions. These include communications satellites like Starlink; space stations such as the ISS; scientific satellites like the Hubble; Earth observation satellites from companies like Planet Labs, Umbra, and HawkEye 360; GPS; miniature CubeSats for education and research; and military/defense satellites.

Loading next visibility...
Identifier
36111, 2009-070A
Orbit
MEO
Country
Flag of CISCIS
Related business
Manufacturer
Resehetnev ISS
Mission
Operational Defense Navigation
Bus & Motor
URAGAN, Unknown motor
Mass
1,450 kg wet, ~1,200 kg dry
Launch date (UTC)
2009-12-14 (17 years ago)
Launch vehicle
PROTON-M/DM-2
Launch site
Tyuratam Missile And Space Complex (TTMTR)
Object type
Payload
Rocket body
Debris
Shape & HBR
Cyl + 1 Ant + 2 Pan, 3.9 m
Radar Cross Section
8.467 m², Large (>1 m²)

Expand to show TLE details & history
Last TLE update: 1 day ago

TLE from 1 day ago
0 COSMOS 2456 (GLONASS)
1 36111U 09070A   26172.32191416 -.00000053  00000-0  00000+0 0  9991
2 36111  65.0135  70.8309 0004475 334.3318 214.0062  2.13103564128513
Epoch: 2026-06-21T07:43Z
TLE epoch observation values (Epoch: 2026-06-21T07:43:33.383Z)
Latitude
-7.56142°
Longitude
-131.03256°
Altitude
19,141.128 km
Speed
3.951 km/s
True Right ascension
16h 57m 31s
True Declination
-7° 32' 56"
Sunlit
Object was in daylight at epoch
Visualization orbit readout
Latitude
Unknown
Longitude
Unknown
Altitude
Unknown
Speed
Unknown
Apparent Right ascension
Unknown
Apparent Declination
Unknown
Sunlit
N/A
Visualization observer readout
Local Sidereal Time
00:50:52
Azimuth
Unknown
Elevation
Unknown
Doppler factor
Unknown
Orbital elements
Apogee altitude
19,140.792 km
Perigee altitude
19,117.962 km
Semi-major axis
25,507.514 km
Eccentricity
0.00045
Inclination
65.0135°
RAAN
70.8309°
Arg. of periapsis
334.3318°
True anomaly
213.97753°
Mean anomaly
214.0062°
Eccentric anomaly
213.99187°
Mean motion
0.53277 °/min
Orbital period
675.71 mins
BSTAR
0
Loading maneuver chart data...
Computing Atmospheric mass density...
Loading historical data...
Loading historical data...
Loading historical data...
Loading historical data...
Loading historical data...
Loading historical data...
Loading historical data...

Documentation

Showing up to 5 results
|